LIEELIEO

Guest
Details From LIEE - Cagliari Elmas
To LIEO - Olbia Costa Smeralda
Flight Number -
Tags Generated
Created
Modified
Stats Distance 100 nm / 186 km
Max Altitude 0 ft / 0 m
Waypoints 2
Social Downloads 5
Likes 0
Share VATSIM

Download

Looking for another format? Having issues loading an existing format? Contact us
Advertisement - Login to hide

Notes

Generated

Route

LIEE LIEO

ID Type Via Altitude Latitude Longitude Leg Dist Tot Dist Heading (true) Name
O LIEE APT - 0 ft / 0 m 39.26081˚ 9.04347˚ - 0 nm - -
O LIEO APT - 0 ft / 0 m 40.89241˚ 9.50569˚ 100 nm 100 nm 12° / 12° -

Altitude Profile

Advertisement - Login to hide

LIEE

Details ICAO LIEE (CAG)
Name Cagliari Elmas
Region Italy
Timezone Europe/Rome (UTC+1.0)
Stats Elevation 13 ft / 4 m (AMSL)
Location 39.251475° 9.054291°
Runways 1
Magnetic Variation 2.298° E

METAR

LIEE 170050Z 30005KT 270V330 9999 -RA FEW050 08/05 Q1016

Decode

TAF

TAF LIEE 162300Z 1700/1724 33018KT 9999 SCT030 TEMPO 1715/1719 4000 SHRA BECMG 1717/1719 33008KT

Decode

Departure Runways

ID Width Length Bearing (true) Bearing (mag) Surface Threshold Offset Overrun Length
14 148 ft / 45 m 9,157 ft / 2,791 m 138.08° 135.78° Asphalt 0 ft / 0 m 187 ft / 57 m
32 148 ft / 45 m 9,157 ft / 2,791 m 318.09° 315.79° Asphalt 0 ft / 0 m 0 ft / 0 m

LIEO

Details ICAO LIEO (OLB)
Name OLBIA COSTA SMERALDA
Region Italy
Timezone Europe/Rome (UTC+1.0)
Stats Elevation 37 ft / 11 m (AMSL)
Location 40.898661° 9.517629°
Runways 1
Magnetic Variation 2.443° E

METAR

LIEO 170050Z 22009KT CAVOK 08/04 Q1014

Decode

TAF

TAF LIEO 162300Z 1700/1724 26013KT 9999 SCT030 BECMG 1709/1711 35010KT TEMPO 1716/1720 4000 SHRA

Decode

Destination Runways

ID Width Length Bearing (true) Bearing (mag) Surface Threshold Offset Overrun Length
06 148 ft / 45 m 8,013 ft / 2,442 m 55.30° 52.86° Asphalt 805 ft / 245 m 180 ft / 55 m
24 148 ft / 45 m 8,013 ft / 2,442 m 235.31° 232.87° Asphalt 495 ft / 151 m 180 ft / 55 m

Approach Navaids

Runway Type Ident Frequency Range Bearing (true) Bearing (mag) Slope Elevation
06 Localiser ISM 109.90 MHz 18 nm / 33 km 55.31° 52.87° - 36 ft / 11 m (AMSL)
06 Glidescope ISM 109.90 MHz 10 nm / 19 km 55.30° 52.86° 3.50° 36 ft / 11 m (AMSL)
06 DME ISM 109.90 MHz 18 nm / 33 km - - - 36 ft / 11 m (AMSL)
24 Localiser IOL 111.30 MHz 20 nm / 37 km 235.31° 232.87° - 36 ft / 11 m (AMSL)
24 Glidescope IOL 111.30 MHz 10 nm / 19 km 235.31° 232.87° 3.00° 36 ft / 11 m (AMSL)
24 DME IOL 111.30 MHz 25 nm / 46 km - - - 36 ft / 11 m (AMSL)

Popular Alternatives